Weather History for KCDS - April, 2014

Change the Weather History Date:

Saturday, April 26, 2014

  Actual Average Record
Temperature  
Mean Temperature 83 °F 66 °F  
Max Temperature 97 °F 79 °F 101 °F (1959)
Min Temperature 68 °F 52 °F 33 °F (1907)
Degree Days  
Heating Degree Days 0 3  
Month to date heating degree days 131 142  
Since 1 July heating degree days 3405 3077  
Cooling Degree Days 18 3  
Month to date cooling degree days 79 56  
Year to date cooling degree days 89 75  
Growing Degree Days 32 (Base 50)    
Moisture  
Dew Point 49 °F    
Average Humidity 38    
Maximum Humidity 68    
Minimum Humidity 7    
Precipitation  
Precipitation 0.02 in 0.09 in 1.83 in (1914)
Month to date precipitation 1.53 1.77  
Year to date precipitation 2.35 5.08  
Snow  
Snow 0.00 in 0.00 in - ()
Month to date snowfall 0.0 0.2  
Since 1 July snowfall 9.5 7.0  
Snow Depth -    
Sea Level Pressure  
Sea Level Pressure 29.51 in    
Wind  
Wind Speed 19 mph (South)    
Max Wind Speed 33 mph    
Max Gust Speed 40 mph    
Visibility 10 miles    
Events Rain , Thunderstorm    
T = Trace of Precipitation, MM = Missing Value Source: NWS Daily Summary

Daily Weather History Graph

Daily Weather History Graph

Search for Another Location

Airport or City:

Trip Planner

Search our weather history database for the weather conditions in past years. The results will help you decide how hot, cold, wet, or windy it might be!

Date:

Astronomy

Apr. 26, 2014 Rise Set
Actual Time 6:56 AM CDT 8:21 PM CDT
Civil Twilight 6:30 AM CDT 8:48 PM CDT
Nautical Twilight 5:58 AM CDT 9:20 PM CDT
Astronomical Twilight 5:25 AM CDT 9:53 PM CDT
Moon 5:14 AM CDT (4/26) 5:58 PM CDT (4/26)
Length of Visible Light 14h 18m
Length of Day
13h 25m
Waning Crescent, 8% of the Moon is Illuminated
Apr 26
Waning Crescent
Apr 29
New
May 6
First Quarter
May 14
Full
May 21
Last Quarter

Hourly Weather History & Observations

Time (CDT) Temp. Heat Index Dew Point Humidity Pressure Visibility Wind Dir Wind Speed Gust Speed Precip Events Conditions
12:53 AM 73.0 °F - 45.0 °F 37% 29.67 in 10.0 mi South 19.6 mph 29.9 mph N/A   Clear
1:53 AM 73.0 °F - 48.0 °F 41% 29.67 in 10.0 mi South 18.4 mph 26.5 mph N/A   Clear
2:53 AM 73.0 °F - 51.1 °F 46% 29.64 in 10.0 mi South 18.4 mph 27.6 mph N/A   Clear
3:53 AM 71.1 °F - 53.1 °F 53% 29.62 in 10.0 mi South 17.3 mph - N/A   Clear
4:53 AM 70.0 °F - 54.0 °F 57% 29.62 in 10.0 mi South 17.3 mph - N/A   Clear
5:53 AM 69.1 °F - 55.0 °F 61% 29.62 in 10.0 mi South 18.4 mph - N/A   Clear
6:53 AM 69.1 °F - 55.9 °F 63% 29.61 in 10.0 mi South 15.0 mph - N/A   Clear
7:53 AM 69.1 °F - 55.9 °F 63% 29.62 in 10.0 mi South 15.0 mph - N/A   Clear
8:53 AM 72.0 °F - 57.9 °F 61% 29.63 in 10.0 mi South 12.7 mph - N/A   Clear
9:53 AM 77.0 °F - 59.0 °F 54% 29.61 in 10.0 mi SSW 18.4 mph - N/A   Clear
10:53 AM 81.0 °F 81.3 °F 59.0 °F 47% 29.59 in 10.0 mi SW 21.9 mph - N/A   Clear
11:53 AM 84.0 °F 83.8 °F 59.0 °F 43% 29.57 in 10.0 mi SSW 18.4 mph 25.3 mph N/A   Clear
12:53 PM 88.0 °F 85.9 °F 54.0 °F 31% 29.54 in 10.0 mi SW 18.4 mph 25.3 mph N/A   Clear
1:53 PM 89.1 °F - 52.0 °F 28% 29.50 in 10.0 mi SSW 13.8 mph 25.3 mph N/A   Clear
2:53 PM 96.1 °F - 28.9 °F 9% 29.46 in 9.0 mi SSW 28.8 mph 33.4 mph N/A   Clear
3:53 PM 96.1 °F - 21.9 °F 7% 29.43 in 10.0 mi SW 26.5 mph 35.7 mph N/A   Clear
4:53 PM 93.9 °F - 32.0 °F 11% 29.41 in 10.0 mi SSW 24.2 mph 35.7 mph N/A   Clear
5:53 PM 93.9 °F - 30.9 °F 11% 29.39 in 10.0 mi SSW 20.7 mph 28.8 mph N/A   Clear
6:53 PM 91.9 °F - 28.9 °F 11% 29.39 in 10.0 mi South 18.4 mph - N/A   Clear
7:53 PM 91.0 °F - 36.0 °F 14% 29.37 in 10.0 mi SW 12.7 mph - N/A   Clear
8:16 PM 87.1 °F - 30.0 °F 13% 29.45 in 10.0 mi South 10.4 mph - N/A Thunderstorm Clear
8:28 PM 84.0 °F - 41.0 °F 22% 29.46 in 10.0 mi South 17.3 mph 31.1 mph N/A Thunderstorm Thunderstorm
8:43 PM 82.0 °F - 45.0 °F 27% 29.46 in 10.0 mi SSE 16.1 mph 23.0 mph N/A   Clear
8:53 PM 80.1 °F - 51.1 °F 36% 29.39 in 10.0 mi SSE 18.4 mph 27.6 mph N/A   Clear
9:48 PM 78.8 °F - 59.0 °F 51% 29.50 in 10.0 mi SSE 17.3 mph - N/A Thunderstorm Clear
9:53 PM 79.0 °F - 59.0 °F 50% 29.41 in 10.0 mi SSE 17.3 mph - N/A Thunderstorm Clear
10:28 PM 75.0 °F - 64.0 °F 69% 29.49 in 7.0 mi SSE 17.3 mph - 0.02 in Rain , Thunderstorm Light Thunderstorms and Rain
10:48 PM 75.2 °F - 62.6 °F 65% 29.48 in 10.0 mi South 20.7 mph 31.1 mph 0.02 in   Partly Cloudy
10:53 PM 75.0 °F - 62.1 °F 64% 29.40 in 10.0 mi South 24.2 mph 29.9 mph 0.02 in   Partly Cloudy
11:53 PM 73.9 °F - 62.1 °F 66% 29.40 in 10.0 mi SSE 20.7 mph - N/A   Clear